DECAYED
Showing default

SZ-19, 61683 (Decayed)

Orbit data source: Space-Track

SZ-19, 61683 was a payload satellite owned by ZZHGB (CN) in LEO that was launched on Tue, 29 Oct 2024 UTC via a CHANG ZHENG 2F launch vehicle from the Jiuquan Satellite Launch Center, China (JSC). Payload-class satellites include a variety of spacecraft equipped with specific instruments for various scientific and technological missions. These include communications satellites like Starlink; space stations such as the ISS; scientific satellites like the Hubble; Earth observation satellites from companies like Planet Labs, Umbra, and HawkEye 360; GPS; miniature CubeSats for education and research; and military/defense satellites.

Loading next visibility...
Identifier
61683, 2024-194A
Orbit
Decayed
Last TLE update
2 months ago
Origin
Manufacturer
CALT
Mission
Decayed Civil Spaceship
Bus & Motor
SHENZHOU, Unknown motor
Mass
~8,100 kg wet, 3,258 kg dry
Launch date (UTC)
2024-10-29 (8 months ago)
Launch vehicle
CHANG ZHENG 2F
Launch site
Jiuquan Satellite Launch Center, China (JSC)
Object type
Payload
Rocket body
Debris
Shape & HBR
Cyl + 2 Pan, 17 m
Radar Cross Section
39.234 m², Large (>1 m²)

Expand to show TLE details & history

TLE from 2 months ago
0 SZ-19
1 61683U 24194A   25122.74700472  .00000615  00000-0  11001-4 0  9996
2 61683  41.4751 296.9761 0005180 287.8657  72.1617 15.61260438227679
Epoch: 2025-05-02T17:55Z
TLE epoch observation values (Epoch: 2025-05-02T17:55:41.207Z)
Latitude
-0.00003°
Longitude
167.15519°
Altitude
382.544 km
Speed
7.683 km/s
True Right ascension
19h 47m 54s
True Declination
0° 00' 00"
Sunlit
Object was in daylight at epoch
Visualization orbit readout
Visualization observer readout
Orbital elements
Apogee altitude
389.752 km
Perigee altitude
382.744 km
Semi-major axis
6,764.385 km
Eccentricity
0.00052
Inclination
41.4751°
RAAN
296.9761°
Arg. of periapsis
287.8657°
True anomaly
Unknown
Mean anomaly
72.1617°
Eccentric anomaly
Unknown
Mean motion
3.90122 °/min
Orbital period
92.28 mins
BSTAR
0.000011001
Loading maneuver chart data...
Loading SW <> Apogee altitude chart data...
Loading historical data...
Loading historical data...
Loading historical data...
Loading historical data...
Loading historical data...
Loading historical data...
Loading historical data...
Other satellites on launch #194 in the year 2024 (2024-10-29 UTC)

SZ-19 Visibility forecast

Observer location: undefined°, undefined°

Span
Click to sort rows by Start time (UTC) header in descending order
Start Az.
Max El. time (UTC)
Max El. Az.
Max El.
End time (UTC)
End Az.
4 mins2025-07-03 10:01:43.058Z203.476° SW2025-07-03 10:03:43.058Z158.987° S21.808°2025-07-03 10:05:43.058Z105.663° ESE
4 mins2025-07-03 11:38:43.058Z256.765° W2025-07-03 11:40:43.058Z74.489° E44.465°2025-07-03 11:42:43.058Z77.023° E
4 mins2025-07-03 13:15:43.058Z286.394° WNW2025-07-03 13:17:43.058Z35.388° NE41.293°2025-07-03 13:19:43.058Z84.26° E
4 mins2025-07-03 14:52:43.058Z268.554° W2025-07-03 14:54:43.058Z166.741° S36.7°2025-07-03 14:56:43.058Z125.385° SE
|